Location: Unspecified
(0.0000°N, 0.0000°E)
Time: 02:47:07
(UTC+00:00)

QB50P2 - Visible Passes

Search period start: 17 March 2026 00:00
Search period end: 27 March 2026 00:00
Orbit: 518 x 531 km, 98.1° (Epoch: 16 March)

Date Brightness Start Highest point End Pass type
(mag) Time Alt. Az. Time Alt. Az. Time Alt. Az.
17 Mar ? 03:57:46 10° ENE 03:59:37 13° ESE 04:01:29 10° SE visible
17 Mar ? 05:30:56 10° NW 05:33:31 18° WNW 05:36:07 10° WSW visible
18 Mar ? 05:18:12 10° NNW 05:21:26 27° WNW 05:24:41 10° SW visible
19 Mar ? 05:05:45 10° N 05:09:20 43° WNW 05:12:57 10° SSW visible
20 Mar ? 04:53:28 10° N 04:57:13 72° WNW 05:01:01 10° SSW visible
21 Mar ? 04:41:20 10° NNE 04:45:05 69° ESE 04:48:53 10° S visible
22 Mar ? 04:29:23 10° NNE 04:32:57 41° ESE 04:36:34 10° S visible
23 Mar ? 04:17:37 10° NE 04:20:49 26° ESE 04:24:02 10° SSE visible
24 Mar ? 04:06:08 10° ENE 04:08:39 17° ESE 04:11:11 10° SE visible
24 Mar ? 05:40:33 10° NW 05:42:33 14° WNW 05:44:34 10° WSW visible
25 Mar ? 03:55:28 10° E 03:56:30 11° ESE 03:57:31 10° ESE visible
25 Mar ? 05:27:27 10° NNW 05:30:22 21° WNW 05:33:20 10° SW visible
26 Mar ? 05:14:45 10° NNW 05:18:11 33° WNW 05:21:39 10° SW visible
